Zurück zum Katalog

STARLINK-31263

AktivKommunikationVLEO
NORAD 58832·PAYLOAD·🇺🇸 United States

Gestartet Jan 24, 2024 von Vandenberg Space Force Base

Loading…

Nächste Überflüge (nächste 24 Stunden)

TLE

AktuellSource: CelesTrak SupGP

Epoche: Sep 14, 2026, 22:20 UTC

1 58832C 24017G   26257.93104167  .00017379  00000+0  51379-3 0  2574
2 58832  53.1586  31.4889 0001164  78.9889 317.6946 15.34362647    18

Verfolge STARLINK-31263 in Echtzeit mit AllMySat

Download on the App Store